Project,Study,Ord_Occ,Event_Num,Cast_ID,Date_Time_UTC,Date_Time_PST,Lat_Dec,Lon_Dec,Sta_ID,Line,Sta,Depth,Pressure,PrQ,Temp1,Temp1Q,Temp2,Temp2Q,TempAve,Salt1,Salt1Q,Salt1_Corr,Salt2,Salt2Q,Salt2_Corr,SaltAve_Corr,Ox1,Ox1Q,Ox1_CruiseCorr,Ox1_StaCorr,Ox2,Ox2Q,Ox2_CruiseCorr,Ox2_StaCorr,OxAve_StaCorr,Ox1uM,Ox1uM_CruiseCorr,Ox1uM_StaCorr,Ox2uM,Ox2uM_CruiseCorr,Ox2uM_StaCorr,OxAveuM_StaCorr,FluorV,FluorQ,EstChl_CruiseCorr,EstChl_StaCorr,ISUSV,ISUSQ,EstNO3_CruiseCorr,EstNO3_StaCorr,SigThetaTS1,SigThetaTS1Q,SigThetaTS2,SigThetaTS2Q,BAT,XMiss,TransQ,pH,pHQ,SPAR,SPARQ,PAR,PARQ,PoT1,PoT2,DynHt,SVA,OxSat1,OxSat2,BTL_Depth,BTL_Temp,SaltB,OxB,OxBuM,Chl-a,Phaeo,NO3,NO2,NH4,PO4,SIL
CalCOFI,2105SH,023,,2105_023d,09-May-2021 04:06:03,08-May-2021 20:06:03,33.41611,-117.90736,090.0 030.0,090.0,030.0,2.000,2.014,,17.9914,,17.9516,,17.9715,33.6177,,33.6189,33.6135,,33.6154,33.6172,5.5560,,5.8766,5.9450,5.6359,,5.8971,5.9500,5.9475,242.266,255.7637,262.1732,245.745,266.7765,263.0359,262.6046,0.0583,,0.2119,0.2656,2.7073,,1.1501,,24.2159,,24.2224,,,,,,,,,,,17.9911,17.9513,-0.0020,369.535,102.574,103.968,,,,,,,,,,,,
CalCOFI,2105SH,023,,2105_023d,09-May-2021 04:06:28,08-May-2021 20:06:28,33.41608,-117.90736,090.0 030.0,090.0,030.0,3.000,3.021,,18.2695,,18.3249,,18.2972,33.6297,,33.6309,33.6348,,33.6367,33.6338,5.4757,,5.7926,5.8595,5.5474,,5.8054,5.8569,5.8582,238.779,252.1184,258.4111,241.905,263.0105,258.9379,258.6745,0.0638,,0.2523,0.3025,2.6954,,1.1501,,24.1568,,24.1471,,,,,,,,,,,18.2690,18.3244,0.0045,375.203,101.632,103.073,3,18.090,33.6138,5.925,258.36,0.347,0.112,1.00,0.055,0.00,0.30,2.46
CalCOFI,2105SH,023,,2105_023d,09-May-2021 04:06:30,08-May-2021 20:06:30,33.41608,-117.90736,090.0 030.0,090.0,030.0,4.000,4.029,,18.2845,,18.2983,,18.2914,33.6302,,33.6314,33.6341,,33.6360,33.6337,5.5053,,5.8235,5.8910,5.5637,,5.8223,5.8741,5.8826,240.068,253.4659,259.8018,242.615,264.4026,259.6956,259.7487,0.0651,,0.2619,0.3112,2.6968,,1.1501,,24.1534,,24.1531,,,,,,,,,,,18.2838,18.2976,0.0084,375.557,102.209,103.322,,,,,,,,,,,,
CalCOFI,2105SH,023,,2105_023d,09-May-2021 04:06:32,08-May-2021 20:06:32,33.41608,-117.90737,090.0 030.0,090.0,030.0,5.000,5.036,,18.1876,,18.2030,,18.1953,33.6291,,33.6303,33.6282,,33.6301,33.6302,5.5126,,5.8312,5.8988,5.5923,,5.8519,5.9042,5.9015,240.380,253.7921,260.1384,243.858,264.7396,261.0221,260.5803,0.0618,,0.2376,0.2891,2.6978,,1.1501,,24.1766,,24.1720,,,,,,,,,,,18.1867,18.2022,0.0122,373.387,102.156,103.663,,,,,,,,,,,,
CalCOFI,2105SH,023,,2105_023d,09-May-2021 04:06:35,08-May-2021 20:06:35,33.41607,-117.90738,090.0 030.0,090.0,030.0,6.000,6.043,,18.1476,,18.0899,,18.1188,33.6230,,33.6242,33.6214,,33.6233,33.6238,5.4901,,5.8076,5.8748,5.5958,,5.8555,5.9078,5.8913,239.399,252.7665,259.0800,244.006,263.6801,261.1801,260.1301,0.0604,,0.2273,0.2797,2.7002,,1.1501,,24.1818,,24.1946,,,,,,,,,,,18.1466,18.0889,0.0159,372.928,101.659,103.502,,,,,,,,,,,,
CalCOFI,2105SH,023,,2105_023d,09-May-2021 04:06:36,08-May-2021 20:06:36,33.41606,-117.90738,090.0 030.0,090.0,030.0,7.000,7.050,,18.1135,,18.0838,,18.0987,33.6242,,33.6254,33.6171,,33.6190,33.6222,5.6146,,5.9378,6.0073,5.6874,,5.9504,6.0042,6.0058,244.827,258.4409,264.9363,247.999,269.5423,265.4414,265.1889,0.0559,,0.1942,0.2496,2.7036,,1.1501,,24.1910,,24.1929,,,,,,,,,,,18.1123,18.0826,0.0197,372.077,103.897,105.181,,,,,,,,,,,,
CalCOFI,2105SH,023,,2105_023d,09-May-2021 04:06:38,08-May-2021 20:06:38,33.41606,-117.90738,090.0 030.0,090.0,030.0,8.000,8.057,,17.5972,,17.6861,,17.6417,33.6102,,33.6114,33.5991,,33.6010,33.6062,5.6514,,5.9763,6.0465,5.6997,,5.9631,6.0171,6.0318,246.404,260.0895,266.6377,248.518,271.2455,265.9953,266.3165,0.0567,,0.2001,0.2549,2.7084,,1.1501,,24.3057,,24.2758,,,,,,,,,,,17.5958,17.6848,0.0234,361.177,103.550,104.604,,,,,,,,,,,,
CalCOFI,2105SH,023,,2105_023d,09-May-2021 04:06:39,08-May-2021 20:06:39,33.41606,-117.90738,090.0 030.0,090.0,030.0,9.000,9.064,,17.5456,,17.5194,,17.5325,33.6113,,33.6125,33.6079,,33.6098,33.6112,5.6438,,5.9684,6.0384,5.7619,,6.0276,6.0826,6.0605,246.066,259.7362,266.2730,251.216,270.8805,268.8746,267.5738,0.0578,,0.2082,0.2623,2.7157,,1.1501,,24.3192,,24.3228,,,,,,,,,,,17.5441,17.5179,0.0270,359.923,103.307,105.415,,,,,,,,,,,,
CalCOFI,2105SH,023,,2105_023d,09-May-2021 04:06:41,08-May-2021 20:06:41,33.41606,-117.90738,090.0 030.0,090.0,030.0,10.000,10.072,,17.2121,,17.1682,,17.1902,33.5862,,33.5874,33.5742,,33.5761,33.5818,5.7967,,6.1283,6.2012,5.9068,,6.1777,6.2350,6.2181,252.718,266.6902,273.4499,257.521,278.0646,275.6033,274.5266,0.0603,,0.2266,0.2791,2.7284,,1.1501,,24.3792,,24.3804,,,,,,,,,,,17.2105,17.1666,0.0306,354.236,105.406,107.314,10,16.687,,,266.38,0.937,0.313,1.43,0.080,0.13,0.55,2.52
CalCOFI,2105SH,023,,2105_023d,09-May-2021 04:06:44,08-May-2021 20:06:44,33.41606,-117.90738,090.0 030.0,090.0,030.0,11.000,11.079,,16.3931,,16.3718,,16.3825,33.5486,,33.5498,33.5333,,33.5352,33.5425,6.0170,,6.3587,6.4357,6.1282,,6.4070,6.4679,6.4518,262.281,276.6874,283.7674,267.132,288.3927,285.8601,284.8138,0.0567,,0.2001,0.2549,2.7485,,1.1501,,24.5422,,24.5353,,,,,,,,,,,16.3914,16.3701,0.0341,338.723,107.678,109.613,,,,,,,,,,,,
CalCOFI,2105SH,023,,2105_023d,09-May-2021 04:06:45,08-May-2021 20:06:45,33.41606,-117.90738,090.0 030.0,090.0,030.0,12.000,12.086,,16.3754,,16.3786,,16.3770,33.5817,,33.5829,33.5760,,33.5779,33.5804,6.1158,,6.4620,6.5409,6.2023,,6.4837,6.5459,6.5434,266.581,281.1826,288.4066,270.354,293.0367,289.2986,288.8526,0.0536,,0.1772,0.2341,2.7652,,1.1501,,24.5716,,24.5665,,,,,,,,,,,16.3735,16.3767,0.0375,335.958,109.429,110.980,,,,,,,,,,,,
CalCOFI,2105SH,023,,2105_023d,09-May-2021 04:06:47,08-May-2021 20:06:47,33.41606,-117.90738,090.0 030.0,090.0,030.0,13.000,13.093,,16.2181,,16.2120,,16.2151,33.6156,,33.6168,33.6032,,33.6051,33.6110,6.1746,,6.5235,6.6035,6.2364,,6.5191,6.5818,6.5927,269.129,283.8463,291.1557,271.826,295.7886,290.8695,291.0126,0.0563,,0.1971,0.2522,2.7785,,1.1501,,24.6337,,24.6256,,,,,,,,,,,16.2161,16.2099,0.0408,330.074,110.166,111.247,,,,,,,,,,,,
CalCOFI,2105SH,023,,2105_023d,09-May-2021 04:06:48,08-May-2021 20:06:48,33.41606,-117.90738,090.0 030.0,090.0,030.0,14.000,14.100,,16.0222,,16.0166,,16.0194,33.6128,,33.6140,33.6009,,33.6028,33.6084,6.1642,,6.5126,6.5924,6.2330,,6.5155,6.5782,6.5853,268.664,283.3601,290.6540,271.664,295.2864,290.6967,290.6754,0.0569,,0.2015,0.2563,2.7901,,1.1501,,24.6761,,24.6683,,,,,,,,,,,16.0200,16.0144,0.0441,326.058,109.558,110.760,,,,,,,,,,,,
CalCOFI,2105SH,023,,2105_023d,09-May-2021 04:06:50,08-May-2021 20:06:50,33.41606,-117.90738,090.0 030.0,090.0,030.0,15.000,15.108,,15.8656,,15.8632,,15.8644,33.6089,,33.6101,33.5970,,33.5989,33.6045,6.1196,,6.4660,6.5449,6.1894,,6.4704,6.5323,6.5386,266.710,281.3174,288.5458,269.755,293.1760,288.6594,288.6026,0.0595,,0.2207,0.2737,2.7997,,1.1501,,24.7086,,24.7000,,,,,,,,,,,15.8633,15.8608,0.0474,322.998,108.429,109.653,,,,,,,,,,,,
CalCOFI,2105SH,023,,2105_023d,09-May-2021 04:06:52,08-May-2021 20:06:52,33.41605,-117.90738,090.0 030.0,090.0,030.0,16.000,16.115,,15.4860,,15.4796,,15.4828,33.5929,,33.5941,33.5731,,33.5750,33.5846,6.0736,,6.4179,6.4960,6.0914,,6.3689,6.4292,6.4626,264.687,279.2026,286.3632,265.468,290.9912,284.0843,285.2238,0.0613,,0.2340,0.2858,2.8000,,1.1501,,24.7810,,24.7672,,,,,,,,,,,15.4836,15.4771,0.0506,316.118,106.801,107.089,,,,,,,,,,,,
CalCOFI,2105SH,023,,2105_023d,09-May-2021 04:06:54,08-May-2021 20:06:54,33.41604,-117.90738,090.0 030.0,090.0,030.0,17.000,17.122,,14.8944,,14.8756,,14.8850,33.5687,,33.5699,33.5381,,33.5400,33.5550,5.9546,,6.2934,6.3693,5.9493,,6.2217,6.2797,6.3245,259.475,273.7540,280.7400,259.247,285.3622,277.4453,279.0927,0.0742,,0.3285,0.3723,2.7883,,1.1501,,24.8918,,24.8724,,,,,,,,,,,14.8919,14.8731,0.0538,305.583,103.472,103.321,,,,,,,,,,,,
CalCOFI,2105SH,023,,2105_023d,09-May-2021 04:06:56,08-May-2021 20:06:56,33.41604,-117.90739,090.0 030.0,090.0,030.0,18.000,18.129,,14.3847,,14.3723,,14.3785,33.5509,,33.5521,33.5196,,33.5215,33.5368,5.8259,,6.1588,6.2323,5.8202,,6.0880,6.1439,6.1881,253.842,267.8652,274.6625,253.597,279.2786,271.4156,273.0391,0.0936,,0.4692,0.5024,2.7705,,1.1501,,24.9872,,24.9656,,,,,,,,,,,14.3821,14.3697,0.0568,296.526,100.194,100.051,,,,,,,,,,,,
CalCOFI,2105SH,023,,2105_023d,09-May-2021 04:06:57,08-May-2021 20:06:57,33.41604,-117.90739,090.0 030.0,090.0,030.0,19.000,19.136,,13.7243,,13.7154,,13.7199,33.5457,,33.5469,33.5115,,33.5134,33.5302,5.7333,,6.0620,6.1337,5.7585,,6.0241,6.0790,6.1064,249.773,263.6115,270.2725,250.879,274.8840,268.5149,269.3937,0.1398,,0.7969,0.8121,2.7435,,1.1501,,25.1207,,25.0961,,,,,,,,,,,13.7217,13.7128,0.0597,283.821,97.286,97.676,,,,,,,,,,,,
CalCOFI,2105SH,023,,2105_023d,09-May-2021 04:06:59,08-May-2021 20:06:59,33.41604,-117.90738,090.0 030.0,090.0,030.0,20.000,20.144,,13.3653,,13.3636,,13.3645,33.5489,,33.5501,33.5240,,33.5259,33.5380,5.6545,,5.9796,6.0498,5.6940,,5.9572,6.0111,6.0305,246.322,260.0038,266.5492,248.050,271.1569,265.4958,266.0225,0.1412,,0.8067,0.8215,2.7075,,1.1501,,25.1963,,25.1774,,,,,,,,,,,13.3626,13.3608,0.0625,276.648,95.249,95.897,,,,,,,,,,,,
CalCOFI,2105SH,023,,2105_023d,09-May-2021 04:07:01,08-May-2021 20:07:01,33.41604,-117.90739,090.0 030.0,090.0,030.0,21.000,21.151,,13.2131,,13.2136,,13.2134,33.5532,,33.5544,33.5312,,33.5331,33.5438,5.5060,,5.8243,5.8917,5.5703,,5.8291,5.8810,5.8864,239.847,253.2349,259.5634,242.650,264.1639,259.7330,259.6482,0.1445,,0.8297,0.8437,2.6599,,1.1501,,25.2302,,25.2131,,,,,,,,,,,13.2102,13.2107,0.0653,273.444,92.462,93.529,,,,,,,,,,,,
CalCOFI,2105SH,023,,2105_023d,09-May-2021 04:07:03,08-May-2021 20:07:03,33.41604,-117.90740,090.0 030.0,090.0,030.0,22.000,22.158,,12.9545,,12.9566,,12.9556,33.5622,,33.5634,33.5433,,33.5452,33.5543,5.3802,,5.6927,5.7578,5.4459,,5.7003,5.7501,5.7540,234.354,247.4925,253.6370,237.217,258.2315,253.9349,253.7860,0.1518,,0.8804,0.8926,2.5961,,1.1501,,25.2887,,25.2737,,,,,,,,,,,12.9515,12.9536,0.0680,267.899,89.874,90.964,,,,,,,,,,,,
CalCOFI,2105SH,023,,2105_023d,09-May-2021 04:07:05,08-May-2021 20:07:05,33.41604,-117.90740,090.0 030.0,090.0,030.0,23.000,23.165,,12.7904,,12.7897,,12.7901,33.5703,,33.5715,33.5523,,33.5542,33.5629,5.2820,,5.5900,5.6533,5.3809,,5.6329,5.6818,5.6676,230.066,243.0098,249.0107,234.376,253.6004,250.9030,249.9569,0.1807,,1.0785,1.0864,2.5476,,1.1501,,25.3273,,25.3135,,,,,,,,,,,12.7873,12.7866,0.0707,264.244,87.938,89.573,,,,,,,,,,,,
CalCOFI,2105SH,023,,2105_023d,09-May-2021 04:07:06,08-May-2021 20:07:06,33.41603,-117.90740,090.0 030.0,090.0,030.0,24.000,24.173,,12.6505,,12.6495,,12.6500,33.5777,,33.5789,33.5623,,33.5642,33.5716,5.2808,,5.5888,5.6520,5.3491,,5.6000,5.6483,5.6502,230.006,242.9471,248.9459,232.985,253.5356,249.4185,249.1822,0.2386,,1.4635,1.4747,2.5137,,1.1501,,25.3604,,25.3487,,,,,,,,,,,12.6473,12.6463,0.0734,261.119,87.667,88.792,,,,,,,,,,,,
CalCOFI,2105SH,023,,2105_023d,09-May-2021 04:07:08,08-May-2021 20:07:08,33.41602,-117.90740,090.0 030.0,090.0,030.0,25.000,25.180,,12.6065,,12.6074,,12.6070,33.5823,,33.5835,33.5696,,33.5715,33.5775,5.2306,,5.5363,5.5986,5.2996,,5.5487,5.5962,5.5974,227.820,240.6618,246.5874,230.828,251.1747,247.1165,246.8520,0.2782,,1.7175,1.7402,2.4781,,1.1501,,25.3726,,25.3625,,,,,,,,,,,12.6031,12.6041,0.0760,259.985,86.758,87.898,,,,,,,,,,,,
CalCOFI,2105SH,023,,2105_023d,09-May-2021 04:07:10,08-May-2021 20:07:10,33.41602,-117.90741,090.0 030.0,090.0,030.0,26.000,26.187,,12.5052,,12.5065,,12.5059,33.5862,,33.5874,33.5738,,33.5757,33.5816,5.1571,,5.4594,5.5203,5.2250,,5.4715,5.5177,5.5190,224.611,237.3071,243.1253,227.571,247.7090,243.6407,243.3830,0.3288,,2.0312,2.0795,2.4346,,1.1501,,25.3953,,25.3855,,,,,,,,,,,12.5018,12.5030,0.0786,257.846,85.361,86.480,,,,,,,,,,,,
CalCOFI,2105SH,023,,2105_023d,09-May-2021 04:07:12,08-May-2021 20:07:12,33.41602,-117.90742,090.0 030.0,090.0,030.0,27.000,27.194,,12.3869,,12.3873,,12.3871,33.5923,,33.5935,33.5809,,33.5828,33.5882,5.0562,,5.3539,5.4129,5.1259,,5.3688,5.4135,5.4132,220.213,232.7095,238.3803,223.248,242.9592,239.0272,238.7038,0.4088,,2.5020,2.6159,2.3870,,1.1501,,25.4229,,25.4140,,,,,,,,,,,12.3834,12.3838,0.0812,255.246,83.489,84.633,,,,,,,,,,,,
CalCOFI,2105SH,023,,2105_023d,09-May-2021 04:07:14,08-May-2021 20:07:14,33.41602,-117.90742,090.0 030.0,090.0,030.0,28.000,28.202,,12.2884,,12.2905,,12.2895,33.5945,,33.5957,33.5839,,33.5858,33.5908,4.9501,,5.2429,5.3000,5.0149,,5.2538,5.2967,5.2984,215.585,227.8714,233.3871,218.409,237.9609,233.8630,233.6251,0.4457,,2.7088,2.8634,2.3480,,1.1501,,25.4435,,25.4348,,,,,,,,,,,12.2847,12.2869,0.0837,253.309,81.569,82.635,,,,,,,,,,,,
CalCOFI,2105SH,023,,2105_023d,09-May-2021 04:07:16,08-May-2021 20:07:16,33.41602,-117.90742,090.0 030.0,090.0,030.0,29.000,29.209,,12.1958,,12.1981,,12.1970,33.5957,,33.5969,33.5851,,33.5870,33.5920,4.8292,,5.1165,5.1713,4.8221,,5.0541,5.0939,5.1326,210.318,222.3652,227.7046,210.010,232.2725,224.8996,226.3021,0.4282,,2.6116,2.7460,2.3084,,1.1501,,25.4621,,25.4534,,,,,,,,,,,12.1920,12.1944,0.0863,251.554,79.425,79.306,,,,,,,,,,,,
CalCOFI,2105SH,023,,2105_023d,09-May-2021 04:07:18,08-May-2021 20:07:18,33.41602,-117.90742,090.0 030.0,090.0,030.0,30.000,30.216,,12.0041,,12.0053,,12.0047,33.6065,,33.6077,33.5936,,33.5955,33.6016,4.4992,,4.7714,4.8200,4.4343,,4.6524,4.6859,4.7530,195.938,207.3324,212.1900,193.112,216.7421,206.8661,209.5281,0.4766,,2.8770,3.0706,2.2574,,1.1501,,25.5068,,25.4965,,,,,,,,,,,12.0002,12.0014,0.0888,247.323,73.708,72.640,30,12.355,,,231.35,3.089,1.070,6.33,0.256,0.20,0.74,3.30
CalCOFI,2105SH,023,,2105_023d,09-May-2021 04:07:20,08-May-2021 20:07:20,33.41601,-117.90742,090.0 030.0,090.0,030.0,31.000,31.224,,11.7859,,11.7833,,11.7846,33.6253,,33.6265,33.6096,,33.6115,33.6190,4.1383,,4.3939,4.4358,4.1467,,4.3546,4.3833,4.4096,180.212,190.8924,195.2232,180.579,199.7580,193.4909,194.3571,0.4238,,2.5869,2.7165,2.2044,,1.1501,,25.5623,,25.5506,,,,,,,,,,,11.7819,11.7793,0.0913,242.059,67.492,67.618,,,,,,,,,,,,
CalCOFI,2105SH,023,,2105_023d,09-May-2021 04:07:21,08-May-2021 20:07:21,33.41602,-117.90742,090.0 030.0,090.0,030.0,32.000,32.231,,11.5755,,11.5738,,11.5747,33.6430,,33.6442,33.6302,,33.6321,33.6382,4.0312,,4.2819,4.3218,4.0870,,4.2927,4.3205,4.3212,175.535,186.0031,190.1772,177.966,194.7068,190.7023,190.4398,0.2605,,1.6049,1.6215,2.1566,,1.1501,,25.6151,,25.6055,,,,,,,,,,,11.5715,11.5698,0.0937,237.054,65.459,66.357,,,,,,,,,,,,
CalCOFI,2105SH,023,,2105_023d,09-May-2021 04:07:23,08-May-2021 20:07:23,33.41600,-117.90742,090.0 030.0,090.0,030.0,33.000,33.238,,11.4875,,11.4897,,11.4886,33.6461,,33.6473,33.6362,,33.6381,33.6427,3.9785,,4.2268,4.2657,4.0588,,4.2635,4.2909,4.2783,173.241,183.6049,187.7022,176.738,192.2293,189.3918,188.5470,0.2266,,1.3850,1.3942,2.0961,,1.1501,,25.6337,,25.6256,,,,,,,,,,,11.4834,11.4856,0.0960,235.304,64.486,65.786,,,,,,,,,,,,
CalCOFI,2105SH,023,,2105_023d,09-May-2021 04:07:26,08-May-2021 20:07:26,33.41600,-117.90742,090.0 030.0,090.0,030.0,34.000,34.245,,11.4487,,11.4521,,11.4504,33.6462,,33.6474,33.6395,,33.6414,33.6444,3.9178,,4.1633,4.2011,3.9853,,4.1874,4.2135,4.2073,170.593,180.8367,184.8453,173.537,189.3694,185.9757,185.4105,0.2108,,1.2807,1.2882,2.0145,,1.1501,,25.6410,,25.6351,,,,,,,,,,,11.4445,11.4479,0.0984,234.638,63.448,64.545,,,,,,,,,,,,
CalCOFI,2105SH,023,,2105_023d,09-May-2021 04:07:27,08-May-2021 20:07:27,33.41600,-117.90742,090.0 030.0,090.0,030.0,35.000,35.253,,11.4161,,11.4150,,11.4156,33.6479,,33.6491,33.6415,,33.6434,33.6463,3.8704,,4.1138,4.1506,3.9408,,4.1413,4.1667,4.1587,168.531,178.6811,182.6206,171.596,187.1425,183.9043,183.2625,0.2142,,1.3032,1.3110,1.9699,,1.1501,,25.6483,,25.6435,,,,,,,,,,,11.4118,11.4106,0.1008,233.965,62.639,63.774,,,,,,,,,,,,
CalCOFI,2105SH,023,,2105_023d,09-May-2021 04:07:29,08-May-2021 20:07:29,33.41600,-117.90742,090.0 030.0,090.0,030.0,36.000,36.260,,11.3806,,11.3818,,11.3812,33.6494,,33.6506,33.6439,,33.6458,33.6482,3.8268,,4.0682,4.1042,3.8907,,4.0894,4.1140,4.1091,166.631,176.6948,180.5707,169.412,185.0904,181.5735,181.0721,0.2072,,1.2567,1.2641,1.9353,,1.1501,,25.6559,,25.6514,,,,,,,,,,,11.3761,11.3773,0.1031,233.257,61.887,62.919,,,,,,,,,,,,
CalCOFI,2105SH,023,,2105_023d,09-May-2021 04:07:31,08-May-2021 20:07:31,33.41600,-117.90743,090.0 030.0,090.0,030.0,37.000,37.267,,11.3453,,11.3437,,11.3445,33.6511,,33.6523,33.6453,,33.6472,33.6498,3.7747,,4.0137,4.0487,3.8264,,4.0228,4.0464,4.0476,164.359,174.3197,178.1195,166.611,182.6367,178.5843,178.3519,0.2000,,1.2086,1.2158,1.9001,,1.1501,,25.6637,,25.6595,,,,,,,,,,,11.3407,11.3391,0.1055,232.541,60.999,61.830,,,,,,,,,,,,
CalCOFI,2105SH,023,,2105_023d,09-May-2021 04:07:33,08-May-2021 20:07:33,33.41600,-117.90744,090.0 030.0,090.0,030.0,38.000,38.275,,11.2605,,11.2594,,11.2600,33.6538,,33.6550,33.6479,,33.6498,33.6524,3.7246,,3.9613,3.9954,3.7732,,3.9677,3.9904,3.9929,162.175,172.0365,175.7631,164.291,180.2780,176.1084,175.9358,0.1791,,1.0677,1.0757,1.8654,,1.1501,,25.6812,,25.6768,,,,,,,,,,,11.2558,11.2547,0.1078,230.896,60.082,60.862,,,,,,,,,,,,
CalCOFI,2105SH,023,,2105_023d,09-May-2021 04:07:35,08-May-2021 20:07:35,33.41600,-117.90744,090.0 030.0,090.0,030.0,39.000,39.282,,11.1933,,11.1928,,11.1931,33.6555,,33.6567,33.6496,,33.6515,33.6541,3.6690,,3.9031,3.9362,3.7229,,3.9156,3.9375,3.9369,159.751,169.5025,173.1479,162.101,177.6600,173.7712,173.4596,0.1594,,0.9329,0.9436,1.8382,,1.1501,,25.6947,,25.6902,,,,,,,,,,,11.1885,11.1880,0.1101,229.632,59.101,59.967,,,,,,,,,,,,
CalCOFI,2105SH,023,,2105_023d,09-May-2021 04:07:37,08-May-2021 20:07:37,33.41600,-117.90744,090.0 030.0,090.0,030.0,40.000,40.289,,11.1319,,11.1310,,11.1315,33.6574,,33.6586,33.6530,,33.6549,33.6568,3.6507,,3.8840,3.9167,3.7042,,3.8962,3.9178,3.9173,158.954,168.6693,172.2880,161.284,176.7993,172.8993,172.5937,0.1503,,0.8700,0.8826,1.8197,,1.1501,,25.7073,,25.7040,,,,,,,,,,,11.1270,11.1261,0.1124,228.455,58.731,59.589,,,,,,,,,,,,
CalCOFI,2105SH,023,,2105_023d,09-May-2021 04:07:38,08-May-2021 20:07:38,33.41600,-117.90745,090.0 030.0,090.0,030.0,41.000,41.297,,11.1137,,11.1132,,11.1135,33.6596,,33.6608,33.6560,,33.6579,33.6594,3.6261,,3.8583,3.8905,3.6930,,3.8846,3.9060,3.8983,157.882,167.5486,171.1314,160.796,175.6415,172.3785,171.7550,0.1428,,0.8179,0.8323,1.8042,,1.1501,,25.7123,,25.7096,,,,,,,,,,,11.1087,11.1082,0.1147,228.007,58.313,59.387,,,,,,,,,,,,
CalCOFI,2105SH,023,,2105_023d,09-May-2021 04:07:40,08-May-2021 20:07:40,33.41598,-117.90746,090.0 030.0,090.0,030.0,42.000,42.304,,11.1039,,11.1045,,11.1042,33.6612,,33.6624,33.6581,,33.6600,33.6612,3.6122,,3.8437,3.8757,3.6780,,3.8691,3.8903,3.8830,157.275,166.9141,170.4765,160.141,174.9859,171.6795,171.0780,0.1485,,0.8575,0.8705,1.7882,,1.1501,,25.7153,,25.7128,,,,,,,,,,,11.0988,11.0994,0.1170,227.736,58.078,59.135,,,,,,,,,,,,
CalCOFI,2105SH,023,,2105_023d,09-May-2021 04:07:42,08-May-2021 20:07:42,33.41598,-117.90746,090.0 030.0,090.0,030.0,43.000,43.311,,11.0934,,11.0936,,11.0935,33.6630,,33.6642,33.6607,,33.6626,33.6634,3.5891,,3.8196,3.8511,3.6601,,3.8505,3.8714,3.8613,156.270,165.8635,169.3922,159.363,173.9005,170.8492,170.1207,0.1437,,0.8241,0.8383,1.7714,,1.1501,,25.7186,,25.7168,,,,,,,,,,,11.0881,11.0883,0.1193,227.448,57.694,58.835,,,,,,,,,,,,
CalCOFI,2105SH,023,,2105_023d,09-May-2021 04:07:44,08-May-2021 20:07:44,33.41598,-117.90746,090.0 030.0,090.0,030.0,44.000,44.319,,11.0921,,11.0930,,11.0926,33.6629,,33.6641,33.6610,,33.6629,33.6635,3.5472,,3.7758,3.8065,3.6084,,3.7970,3.8170,3.8118,154.447,163.9577,167.4254,157.111,171.9317,168.4459,167.9357,0.1455,,0.8367,0.8504,1.7598,,1.1501,,25.7188,,25.7172,,,,,,,,,,,11.0868,11.0876,0.1216,227.456,57.020,58.003,,,,,,,,,,,,
CalCOFI,2105SH,023,,2105_023d,09-May-2021 04:07:46,08-May-2021 20:07:46,33.41598,-117.90746,090.0 030.0,090.0,030.0,45.000,45.326,,11.0528,,11.0479,,11.0504,33.6669,,33.6681,33.6646,,33.6665,33.6673,3.5013,,3.7278,3.7577,3.5497,,3.7362,3.7553,3.7565,152.444,161.8638,165.2644,154.555,169.7684,165.7181,165.4913,0.1460,,0.8401,0.8537,1.7499,,1.1501,,25.7290,,25.7281,,,,,,,,,,,11.0473,11.0424,0.1239,226.506,56.235,57.007,,,,,,,,,,,,
CalCOFI,2105SH,023,,2105_023d,09-May-2021 04:07:48,08-May-2021 20:07:48,33.41598,-117.90746,090.0 030.0,090.0,030.0,46.000,46.333,,10.9385,,10.9367,,10.9376,33.6790,,33.6802,33.6750,,33.6769,33.6786,3.4652,,3.6900,3.7193,3.5224,,3.7079,3.7266,3.7230,150.870,160.2183,163.5662,153.359,168.0685,164.4418,164.0040,0.1473,,0.8492,0.8624,1.7382,,1.1501,,25.7588,,25.7561,,,,,,,,,,,10.9330,10.9311,0.1262,223.690,55.524,56.437,,,,,,,,,,,,
CalCOFI,2105SH,023,,2105_023d,09-May-2021 04:07:50,08-May-2021 20:07:50,33.41598,-117.90746,090.0 030.0,090.0,030.0,47.000,47.341,,10.8732,,10.8726,,10.8729,33.6847,,33.6859,33.6815,,33.6834,33.6847,3.4438,,3.6676,3.6965,3.5081,,3.6931,3.7115,3.7040,149.934,159.2398,162.5564,152.736,167.0576,163.7769,163.1667,0.1287,,0.7191,0.7377,1.7264,,1.1501,,25.7749,,25.7725,,,,,,,,,,,10.8675,10.8669,0.1284,222.178,55.106,56.133,,,,,,,,,,,,
CalCOFI,2105SH,023,,2105_023d,09-May-2021 04:07:52,08-May-2021 20:07:52,33.41597,-117.90748,090.0 030.0,090.0,030.0,48.000,48.348,,10.8528,,10.8524,,10.8526,33.6862,,33.6874,33.6838,,33.6857,33.6866,3.4433,,3.6671,3.6959,3.4973,,3.6819,3.7002,3.6981,149.914,159.2189,162.5348,152.262,167.0360,163.2711,162.9030,0.1283,,0.7163,0.7350,1.7159,,1.1501,,25.7797,,25.7779,,,,,,,,,,,10.8470,10.8466,0.1306,221.743,55.075,55.936,,,,,,,,,,,,
CalCOFI,2105SH,023,,2105_023d,09-May-2021 04:07:54,08-May-2021 20:07:54,33.41596,-117.90748,090.0 030.0,090.0,030.0,49.000,49.356,,10.8370,,10.8367,,10.8369,33.6880,,33.6892,33.6860,,33.6879,33.6886,3.4222,,3.6450,3.6735,3.4820,,3.6661,3.6841,3.6788,148.993,158.2561,161.5411,151.596,166.0414,162.5603,162.0507,0.1258,,0.6987,0.7183,1.7043,,1.1501,,25.7839,,25.7824,,,,,,,,,,,10.8311,10.8308,0.1329,221.363,54.719,55.674,,,,,,,,,,,,
CalCOFI,2105SH,023,,2105_023d,09-May-2021 04:07:56,08-May-2021 20:07:56,33.41596,-117.90748,090.0 030.0,090.0,030.0,50.000,50.363,,10.8206,,10.8202,,10.8204,33.6903,,33.6915,33.6886,,33.6905,33.6910,3.4003,,3.6221,3.6502,3.4428,,3.6255,3.6428,3.6465,148.038,157.2577,160.5108,149.889,165.0100,160.7386,160.6247,0.1229,,0.6782,0.6988,1.6928,,1.1501,,25.7886,,25.7874,,,,,,,,,,,10.8146,10.8142,0.1351,220.940,54.350,55.029,,,,,,,,,,,,
CalCOFI,2105SH,023,,2105_023d,09-May-2021 04:07:57,08-May-2021 20:07:57,33.41596,-117.90748,090.0 030.0,090.0,030.0,51.000,51.370,,10.7942,,10.7925,,10.7934,33.6942,,33.6954,33.6924,,33.6943,33.6949,3.3618,,3.5819,3.6092,3.4057,,3.5870,3.6038,3.6065,146.363,155.5067,158.7036,148.272,163.2010,159.0129,158.8583,0.1164,,0.6322,0.6552,1.6839,,1.1501,,25.7964,,25.7953,,,,,,,,,,,10.7881,10.7864,0.1373,220.221,53.707,54.405,51,10.692,,,153.55,0.376,0.315,19.07,0.124,0.00,1.54,17.96
CalCOFI,2105SH,023,,2105_023d,09-May-2021 04:07:59,08-May-2021 20:07:59,33.41596,-117.90748,090.0 030.0,090.0,030.0,52.000,52.378,,10.7226,,10.7207,,10.7217,33.7055,,33.7067,33.7027,,33.7046,33.7057,3.3148,,3.5327,3.5591,3.3720,,3.5521,3.5683,3.5637,144.311,153.3615,156.4897,146.803,160.9848,157.4452,156.9675,0.1118,,0.5995,0.6244,1.6742,,1.1501,,25.8178,,25.8160,,,,,,,,,,,10.7164,10.7145,0.1395,218.206,52.877,53.787,,,,,,,,,,,,
CalCOFI,2105SH,023,,2105_023d,09-May-2021 04:08:01,08-May-2021 20:08:01,33.41596,-117.90748,090.0 030.0,090.0,030.0,53.000,53.385,,10.6330,,10.6318,,10.6324,33.7189,,33.7201,33.7160,,33.7179,33.7190,3.2955,,3.5125,3.5386,3.3544,,3.5339,3.5498,3.5442,143.471,152.4834,155.5834,146.035,160.0776,156.6256,156.1045,0.1062,,0.5596,0.5868,1.6637,,1.1501,,25.8440,,25.8419,,,,,,,,,,,10.6267,10.6255,0.1417,215.732,52.474,53.409,,,,,,,,,,,,
CalCOFI,2105SH,023,,2105_023d,09-May-2021 04:08:03,08-May-2021 20:08:03,33.41596,-117.90750,090.0 030.0,090.0,030.0,54.000,54.393,,10.5647,,10.5626,,10.5637,33.7280,,33.7292,33.7245,,33.7264,33.7278,3.2903,,3.5071,3.5331,3.3423,,3.5214,3.5371,3.5351,143.240,152.2419,155.3342,145.503,159.8281,156.0579,155.6961,0.1027,,0.5346,0.5634,1.6551,,1.1501,,25.8630,,25.8606,,,,,,,,,,,10.5583,10.5562,0.1439,213.942,52.317,53.140,,,,,,,,,,,,